Regional Weather Roundup
Issued by NWS Northern Indiana

Home | Current Version | Previous Version | Graphics & Text | Print | Product List | Glossary On
Versions: 1 2 3 4 5 6 7 8 9 10 11 12 13 14 15 16 17 18 19 20 21 22 23 24 25 26 27 28 29 30 31 32 33 34 35 36 37 38 39 40 41 42 43 44 45 46 47 48 49 50
000
ASUS43 KIWX 222210
RWRIWX

KIWX WEATHER ROUNDUP
NATIONAL WEATHER SERVICE NORTHERN INDIANA
500 PM EST WED NOV 22 2017

NOTE: "FAIR" INDICATES FEW OR NO CLOUDS BELOW 12,000 FEET WITH NO
SIGNIFICANT WEATHER AND/OR OBSTRUCTIONS TO VISIBILITY.

* THESE STATIONS ARE NOT UNDER NWS QUALITY CONTROL. THEY ALSO MAY NOT
  REPORT WEATHER SUCH AS PRECIPITATION OR FOG.

INZ001>027-222300-
NORTHERN INDIANA

CITY           SKY/WX    TMP DP  RH WIND       PRES   REMARKS
GARY*          MOCLDY    36  10  35 W8        30.28S
VALPARAISO     CLEAR     35  16  45 SW6       30.27R WCI  30
MICHIGAN CITY* CLEAR     32  23  69 CALM      30.28R
LAPORTE*       CLEAR     33  23  67 NW3       30.27S
KNOX*          CLEAR     34  21  60 W3        30.27R
SOUTH BEND     PTCLDY    32  23  69 NW7       30.27S WCI  26
ELKHART*       PTCLDY    36  21  55 W6        30.26R
GOSHEN         PTCLDY    34  19  54 CALM      30.26R
MONTICELLO*    CLEAR     34  20  56 W5        30.27F WCI  30
LOGANSPORT*    PTCLDY    32  23  69 W3        30.28S
ROCHESTER*     PTCLDY    36  23  60 SW3       30.27S
WARSAW*        PTCLDY    32  21  64 W3        30.26S
AUBURN*        CLEAR     32  19  59 CALM      30.26S
FORT WAYNE     PTCLDY    35  22  58 N5        30.27S WCI  31
HUNTINGTON*    PTCLDY    33  20  59 SW3       30.27S
PERU/GRISSOM   CLEAR     34  23  65 W6        30.26S WCI  29
MARION*        CLEAR     34  24  67 NW3       30.28S HAZE

$$
INZ028>050-222300-
CENTRAL INDIANA

CITY           SKY/WX    TMP DP  RH WIND       PRES   REMARKS
LAFAYETTE      CLEAR     34  21  59 CALM      30.29R
KOKOMO*        PTCLDY    35  23  61 W5        30.28S WCI  31
MUNCIE*        CLOUDY    37  23  56 NW7       30.27R
INDIANAPOLIS   PTCLDY    36  23  59 N7        30.28R

$$
MIZ043>046-050>051-056>058-064>065-071>073-077>080-222300-
SOUTHWEST LOWER MICHIGAN

CITY           SKY/WX    TMP DP  RH WIND       PRES   REMARKS
BATTLE CREEK   MOCLDY    32  20  61 W6        30.25S WCI  26
BENTON HARBOR  CLOUDY    33  22  63 W6        30.27S WCI  28
COLDWATER*     MOCLDY    32  17  53 CALM      30.25S
HILLSDALE*     CLEAR     32  18  55 W7        30.23S WCI  26
HOLLAND        CLOUDY    33  22  63 SW5       30.26S WCI  29
GRAND RAPIDS   CLOUDY    33  23  66 SW7       30.25S WCI  27
KALAMAZOO      MOCLDY    32  17  54 NW3       30.26R
STURGIS*       CLEAR     33  20  59 NW3       30.25R
THREE RIVERS*  FAIR      35  21  58 W3        30.26S

$$
OHZ001>008-015>018-024>025-222300-
NORTHWEST OHIO

CITY           SKY/WX    TMP DP  RH WIND       PRES   REMARKS
WAUSEON*       FAIR      32  19  59 NW5       30.26R WCI  27
DEFIANCE       CLEAR     34  17  50 NW3       30.27S
FINDLAY        CLOUDY    32  18  56 NW3       30.27R
TOLEDO EXPRESS CLEAR     34  19  54 W6        30.27R WCI  29
TOLEDO METCALF CLEAR     34  19  54 SW5       30.28R WCI  30
LIMA           PTCLDY    32  21  64 NW6       30.26R WCI  26

$$
AND FOR LAKE MICHIGAN COASTAL AND OPEN LAKE BUOY OBSERVATIONS

STATION/POSITION TEMP    WIND        PRES    VSBY  WAVE
                 AIR SEA DIR/SP/G                  HT/PER
                 (F)     (DEG/KT/KT) (MB)    (MI)  (FT/S)
CALUMET HARBOR    34     240/  4/  8 1024.3R
MICHIGAN CITY     33     260/  7/  9   N/A
BURNS HARBOR      35     280/  5/  8 1025.4S
SAINT JOSEPH      33     250/  7/  8 1025.7
SOUTH LAKE BUOY   31 47  280/  8/ 10 1026.0          2/ 6

$$
&&




USA.gov is the U.S. government's official web portal to all federal, state and local government web resources and services.